Temperature
23 22 21 21 20 19 19 19 19 19 19 18 18 18 18 18 18 17 18 18 17 17 18 18 18 18 17 17 17 17 17 17 17 17 17 18 17 17 17 17 17 17 17
23 22 21 21 20 20 19 19 19 19 19 18 18 18 18 18 18 18 18 18 17 18 17 18 18 18 17 17 17 17 17 17 17 17 18 18 18 17 17 17 17 17 17
24 22 22 21 21 20 20 19 19 19 19 19 18 18 18 18 18 18 18 17 17 17 17 17 17 18 17 17 17 17 17 17 17 17 17 18 18 18 18 17 17 17 17
24 23 22 22 21 21 20 20 19 19 19 19 18 18 18 18 18 18 18 17 17 17 17 17 17 17 17 17 17 17 17 17 17 17 17 17 17 17 18 17 17 17 17
24 23 23 22 21 21 20 20 20 19 19 19 19 18 18 18 18 18 18 18 17 17 17 17 17 17 17 17 17 17 17 17 17 17 17 17 17 17 17 17 17 17 17
24 23 23 22 21 21 20 20 20 20 19 19 19 18 18 18 18 18 18 18 18 17 17 17 17 17 17 17 17 17 17 17 17 17 17 17 17 17 17 17 17 17 16
25 24 23 22 21 21 20 20 20 20 19 19 18 18 18 18 18 18 18 18 18 18 17 17 17 17 17 17 17 17 17 17 17 16 16 16 16 16 17 17 17 16 16
25 24 23 22 21 21 20 20 20 19 19 19 19 18 18 18 18 18 18 18 17 17 17 17 17 17 17 17 17 17 16 16 16 16 16 16 16 16 16 16 16 16 17
25 24 23 22 21 21 20 20 20 19 19 19 19 18 18 18 18 18 18 17 17 17 17 17 17 17 17 17 17 16 16 16 16 16 16 16 16 16 16 16 16 16 16
25 24 23 22 22 21 20 20 19 19 19 19 19 18 18 18 18 18 18 17 17 17 17 17 17 17 17 17 17 16 16 16 16 16 16 16 16 16 16 16 15 15 16
24 24 23 22 22 21 20 20 20 19 19 19 19 18 18 18 17 17 17 17 17 17 17 17 17 17 17 16 16 16 16 16 16 16 16 16 16 15 15 15 15 15 15
24 23 23 22 22 21 20 20 20 19 19 19 19 18 18 17 17 17 17 17 17 17 17 16 16 16 16 16 16 16 16 16 15 15 15 15 15 15 15 15 15 15 15
23 23 22 22 21 21 20 20 19 19 19 19 18 18 18 17 17 17 17 17 17 17 16 16 16 16 16 16 16 16 16 15 15 15 15 15 15 15 15 15 15 14 14
22 22 22 21 21 20 20 20 19 19 19 19 18 18 18 17 17 17 17 17 17 17 16 16 16 16 16 16 16 16 15 15 15 15 15 15 15 15 14 14 14 14 14
22 22 21 21 20 20 20 19 19 19 19 18 18 18 18 17 17 17 16 16 16 16 16 16 16 15 15 15 15 15 15 15 15 15 15 15 14 14 14 14 14 14 13
22 21 21 20 20 20 19 19 19 19 19 18 18 18 18 17 17 16 16 16 16 16 16 16 15 15 15 15 15 15 15 15 15 14 14 14 14 14 14 14 14 14 13
21 21 20 20 20 19 19 19 19 19 18 18 18 18 17 17 17 16 16 16 16 16 15 15 15 15 15 15 15 15 14 14 14 14 14 14 13 13 13 13 13 13 13
21 20 20 20 20 19 19 19 19 18 18 18 18 17 17 17 17 16 16 16 16 15 15 15 15 15 15 15 15 15 14 14 14 14 13 13 13 13 13 12 12 12 12
20 20 20 20 19 19 19 19 18 18 18 18 17 17 17 17 16 16 16 16 15 15 15 14 14 14 14 15 14 14 14 14 13 13 13 13 13 13 13 12 12 12 12
19 19 19 19 19 18 18 18 18 18 18 18 17 17 17 17 16 16 16 15 15 15 14 14 14 14 14 14 14 14 13 13 13 13 13 13 13 13 12 12 11 11 11
19 18 18 18 18 18 18 18 18 17 17 17 17 17 17 17 16 16 15 15 15 14 14 14 14 14 14 14 14 14 13 13 13 13 13 12 12 12 12 12 11 11 11
18 18 18 18 18 18 18 17 17 17 17 17 17 16 16 16 16 16 15 15 14 14 14 14 14 13 13 13 13 13 13 13 12 12 12 12 12 12 12 12 11 11 11
18 18 18 17 17 17 17 17 17 17 17 16 16 16 16 16 16 15 15 15 14 14 14 14 14 13 13 13 13 13 13 13 12 12 12 12 12 11 11 11 11 11 11
17 17 17 17 17 17 17 17 17 17 16 16 16 16 16 16 15 15 15 14 14 14 14 14 14 14 13 13 13 13 13 12 12 12 12 12 11 11 11 11 11 11 11
17 17 17 16 16 16 16 16 16 16 16 16 15 15 15 15 15 15 14 14 14 14 14 14 13 13 13 13 13 13 12 12 12 12 11 12 11 11 11 11 11 11 10
17 16 16 16 16 16 16 16 16 16 15 15 15 15 15 15 15 14 14 14 14 14 14 13 13 13 13 13 13 13 12 12 12 11 11 12 12 12 12 11 11 11 10
Wind_Speed
9 8 8 7 7 6 6 6 5 5 4 3 3 3 2 2 2 2 1 1 2 2 2 1 1 1 1 2 2 2 3 3 2 2 3 3 3 3 2 3 2 2 3
10 9 9 9 8 8 7 6 6 6 5 4 2 2 1 1 2 1 2 1 1 2 2 1 1 1 1 1 2 2 3 2 2 3 3 3 3 3 3 3 3 2 2
11 11 10 10 9 9 8 6 6 6 5 4 4 3 2 2 2 2 2 2 2 2 2 2 1 2 2 2 2 3 3 3 3 3 3 3 2 1 3 3 2 2 2
11 11 11 11 10 9 8 7 7 6 6 5 4 3 3 2 1 1 1 2 2 2 2 2 2 3 2 2 3 2 3 4 3 3 3 4 3 2 1 2 2 3 3
12 12 12 11 10 9 9 8 7 7 6 5 5 4 3 2 1 1 2 2 2 2 2 2 2 3 3 3 3 2 3 3 3 3 3 3 3 5 4 3 2 2 2
12 11 11 11 10 9 8 8 8 7 6 6 5 4 3 3 2 2 2 2 2 2 2 2 2 3 2 2 3 3 3 3 3 4 3 3 3 3 4 4 3 2 2
12 12 12 12 10 10 9 8 8 7 6 6 5 4 4 4 4 3 3 2 2 1 1 2 2 2 2 2 2 3 3 3 3 4 3 4 4 4 4 4 4 3 2
11 12 12 11 11 10 9 9 8 7 6 6 5 4 4 4 3 2 2 2 2 1 1 2 2 2 2 2 2 3 2 2 3 4 3 4 4 4 4 4 4 4 3
11 11 11 11 10 10 9 8 8 7 6 6 5 4 4 3 2 2 3 2 2 1 1 2 2 2 1 2 2 2 2 2 3 3 3 4 3 3 3 3 4 4 4
10 10 10 11 10 9 9 8 8 7 6 6 5 4 4 3 3 3 1 1 1 1 1 1 1 1 1 1 2 2 1 2 2 2 2 3 3 2 3 3 3 4 4
10 10 9 10 10 9 9 9 8 7 6 6 5 4 4 3 3 3 2 2 1 1 1 1 1 1 1 1 1 1 1 2 1 2 1 2 2 2 2 2 2 3 3
8 9 9 9 10 10 9 8 8 7 7 6 5 4 4 3 3 3 2 2 2 1 1 1 1 1 1 1 1 1 1 1 1 1 2 2 1 1 2 2 2 1 1
7 8 8 9 9 9 8 8 7 7 6 6 5 5 4 4 3 3 3 2 2 1 1 1 1 1 1 1 1 1 1 1 1 1 1 1 1 1 1 1 1 1 1
7 7 7 7 8 7 7 7 7 7 7 6 6 5 4 4 4 4 3 3 2 2 1 1 1 1 1 1 1 1 1 1 0 1 1 2 1 1 1 0 1 0 1
6 7 7 8 8 8 8 7 7 7 7 7 6 6 4 4 4 3 3 3 2 2 2 1 1 1 1 0 1 1 1 1 1 1 1 2 3 4 3 2 1 1 1
5 6 6 7 7 7 7 8 8 7 7 6 6 5 5 4 4 4 3 3 2 2 2 2 1 1 0 4 3 2 1 1 2 1 1 2 2 3 3 3 3 2 1
4 5 5 6 6 6 7 7 7 7 7 6 6 6 5 5 5 5 4 4 3 3 2 2 2 1 1 2 1 3 1 1 1 1 1 0 2 1 2 3 4 2 2
3 3 4 4 5 5 6 6 7 7 7 7 6 6 6 6 5 5 5 5 4 3 3 2 2 2 2 2 2 3 2 2 2 2 1 1 1 1 0 1 2 1 1
3 3 4 4 4 5 5 6 7 7 7 7 7 7 7 6 6 5 5 4 4 3 3 3 3 3 3 3 3 5 3 3 3 2 2 2 2 2 2 1 2 2 2
2 2 3 3 4 4 5 6 6 7 7 7 7 7 7 6 6 5 5 4 4 4 4 3 3 3 3 4 4 5 3 3 3 3 3 3 2 2 1 2 2 2 1
2 2 2 3 3 4 4 5 5 5 5 6 6 6 6 6 6 6 6 5 5 5 4 4 4 4 4 6 5 5 4 3 3 3 3 3 5 3 2 3 2 1 2
2 2 2 2 2 3 5 5 4 4 4 5 6 6 6 6 6 6 6 6 6 6 6 5 5 4 4 4 6 6 5 4 4 3 3 3 6 5 3 3 1 2 5
2 2 2 2 2 2 3 4 4 3 4 5 5 6 5 5 6 7 7 7 6 6 6 5 5 5 5 5 8 9 7 6 5 3 2 3 6 7 6 6 5 5 4
2 3 3 3 2 2 3 3 3 4 4 5 5 5 5 6 6 5 6 6 6 6 6 5 5 5 5 5 5 6 7 8 6 5 5 8 8 7 5 5 6 5 4
3 3 3 3 3 3 3 3 3 4 5 5 5 5 5 5 5 5 4 5 4 4 5 5 5 5 6 5 4 5 5 5 5 4 5 5 5 6 5 5 5 4 4
3 3 4 4 4 4 4 3 3 5 5 5 6 5 5 5 5 5 4 1 2 2 3 4 5 4 3 5 6 6 5 4 5 6 7 6 6 6 6 5 5 5 5
Wind_Direction
179 177 178 178 175 175 176 179 183 177 188 189 194 183 177 177 175 174 150 185 204 190 210 215 162 242 224 244 238 235 218 228 235 238 235 225 216 219 219 221 226 208 213
179 179 181 181 183 180 181 183 184 181 190 183 194 193 190 189 167 162 144 196 208 219 203 213 233 226 234 244 250 243 252 241 223 247 255 237 208 209 211 210 214 224 210
187 183 184 185 186 186 186 187 185 183 189 188 191 185 182 200 184 183 184 203 210 219 246 237 257 248 242 234 243 232 235 244 237 241 258 270 254 225 186 201 208 220 230
192 189 187 186 189 189 185 184 184 184 186 196 202 205 208 212 203 213 176 195 212 227 233 239 241 253 256 240 241 224 241 239 241 234 246 266 299 275 241 197 200 211 232
192 192 192 189 189 188 184 181 181 183 186 196 200 214 223 218 213 215 181 223 215 227 234 237 242 245 253 254 258 243 251 248 255 251 243 245 245 252 261 258 252 242 236
189 190 190 185 185 184 182 178 177 182 188 196 200 215 224 226 230 233 223 223 215 221 222 233 240 247 257 254 250 247 237 257 263 266 259 255 255 253 253 257 253 253 256
187 185 184 181 180 181 180 177 176 180 185 192 200 207 217 221 224 231 220 239 241 228 203 243 241 254 256 259 260 244 256 253 259 262 267 264 264 269 267 266 265 264 253
185 183 181 179 178 178 179 179 177 180 182 187 195 203 215 227 224 232 253 243 259 273 257 230 235 248 253 251 244 247 244 248 257 263 266 263 266 268 268 270 272 272 260
179 179 178 178 176 178 179 177 175 178 181 183 190 194 202 220 224 222 233 235 239 241 230 229 228 232 234 252 249 256 257 254 263 264 255 265 265 269 273 269 261 266 273
174 175 176 175 173 173 173 174 174 175 176 179 189 184 192 201 208 217 212 239 243 255 231 224 205 202 206 222 242 228 234 248 260 276 287 277 272 265 262 258 257 261 270
176 174 174 174 169 170 173 173 170 171 175 175 176 182 184 189 195 197 198 203 206 202 212 214 205 216 234 226 234 259 248 249 262 278 275 276 287 274 263 254 252 256 258
173 172 171 171 172 174 173 173 174 176 176 173 172 178 178 177 184 184 188 184 177 191 194 203 207 230 242 240 233 258 278 289 302 304 307 304 299 288 282 265 250 247 240
170 171 170 172 175 175 173 173 177 176 171 167 171 172 180 182 185 187 180 168 169 176 200 186 186 207 228 224 223 243 275 320 335 327 318 327 329 334 329 304 281 238 193
166 171 170 173 173 172 171 175 179 177 173 172 176 176 181 181 181 184 178 172 167 162 166 174 184 189 206 201 211 205 179 155 87 42 23 20 15 4 337 288 285 270 214
166 171 173 170 173 174 174 179 183 181 178 179 180 178 173 174 181 180 173 168 167 160 151 161 172 192 198 246 259 207 179 171 146 112 75 65 58 40 17 357 4 225 218
172 176 181 179 179 183 184 180 179 176 178 181 179 174 174 174 178 176 172 169 170 176 162 170 173 187 105 54 18 305 187 187 168 140 121 133 112 97 93 63 45 28 236
172 183 190 189 188 190 189 185 179 173 177 179 178 176 176 178 182 182 178 182 186 182 181 190 188 182 106 85 30 318 248 192 169 159 175 151 95 146 111 136 157 114 63
174 188 193 190 194 194 188 185 179 177 178 181 182 182 183 184 183 183 186 191 191 191 200 201 190 187 153 142 199 262 214 173 165 171 170 153 124 77 79 144 129 122 101
179 189 199 193 190 187 182 186 189 184 184 186 186 187 189 186 186 190 195 195 191 194 204 200 198 195 171 166 207 246 197 175 179 181 169 165 147 78 325 177 156 160 160
158 174 187 182 181 181 186 192 198 197 196 193 190 188 188 188 191 193 196 195 200 201 205 198 206 206 194 165 197 243 213 189 190 176 168 130 125 124 286 202 181 182 183
156 161 171 179 183 182 187 196 200 208 204 194 190 189 185 188 197 197 201 197 200 204 207 203 209 211 205 174 184 230 235 213 211 200 189 153 139 158 226 251 212 206 247
161 166 166 172 176 183 191 198 200 205 201 197 194 197 195 196 194 197 204 207 204 203 204 206 212 206 200 193 183 198 231 264 228 228 211 160 159 177 210 229 181 235 251
173 182 182 181 179 190 200 208 202 193 199 204 205 203 197 199 200 202 207 204 204 212 212 212 215 211 203 188 181 193 209 229 234 225 133 164 186 198 204 199 207 223 232
198 197 199 199 202 207 216 219 205 189 194 205 210 204 202 203 204 212 215 215 207 215 219 221 225 218 212 212 202 203 203 202 212 212 182 190 208 222 221 199 207 220 229
219 218 218 219 221 220 227 224 223 211 204 208 216 213 213 206 208 218 230 231 230 236 237 235 236 235 227 213 199 218 216 218 215 211 214 215 211 214 217 215 214 221 219
220 223 227 230 233 232 236 230 224 225 212 213 216 217 214 204 210 209 217 257 257 201 233 263 271 253 231 176 187 207 217 204 193 216 223 225 226 227 224 221 216 214 219
Height
1529 1531 1533 1534 1535 1536 1536 1537 1538 1538 1539 1540 1541 1542 1543 1542 1543 1543 1543 1543 1544 1544 1544 1545 1545 1545 1545 1545 1546 1546 1547 1547 1548 1548 1548 1548 1548 1549 1549 1549 1549 1550 1550
1527 1529 1531 1533 1534 1535 1535 1536 1537 1538 1539 1540 1540 1541 1541 1542 1542 1543 1542 1543 1543 1543 1544 1544 1544 1544 1544 1544 1544 1544 1545 1546 1546 1547 1547 1547 1548 1547 1547 1547 1547 1548 1548
1524 1527 1529 1531 1532 1533 1534 1536 1536 1537 1538 1539 1540 1541 1541 1541 1542 1542 1542 1542 1542 1542 1543 1543 1543 1542 1543 1543 1542 1543 1543 1544 1545 1545 1546 1546 1545 1545 1545 1545 1546 1546 1546
1521 1524 1526 1528 1530 1531 1533 1534 1535 1536 1537 1538 1539 1540 1541 1541 1541 1541 1541 1541 1541 1541 1541 1541 1541 1541 1541 1541 1541 1541 1542 1542 1543 1543 1543 1544 1544 1544 1544 1544 1544 1543 1543
1518 1520 1523 1525 1528 1530 1531 1532 1533 1534 1535 1537 1537 1538 1540 1540 1540 1540 1539 1539 1540 1540 1540 1540 1539 1539 1539 1539 1539 1539 1540 1540 1540 1541 1541 1541 1541 1542 1542 1542 1542 1542 1541
1515 1518 1521 1523 1525 1528 1529 1531 1531 1533 1534 1535 1536 1537 1538 1538 1538 1538 1538 1539 1539 1539 1538 1538 1538 1538 1538 1538 1538 1538 1538 1538 1538 1538 1539 1539 1539 1539 1540 1539 1539 1539 1539
1511 1515 1518 1521 1523 1525 1527 1529 1530 1531 1532 1534 1535 1536 1536 1536 1537 1537 1537 1537 1538 1538 1537 1537 1537 1537 1536 1536 1536 1536 1536 1536 1536 1536 1536 1537 1537 1537 1537 1537 1537 1537 1536
1508 1512 1515 1518 1521 1523 1525 1527 1528 1529 1531 1532 1533 1534 1535 1536 1536 1536 1536 1536 1536 1536 1535 1535 1535 1535 1535 1535 1535 1535 1534 1534 1534 1534 1534 1534 1534 1535 1534 1535 1535 1534 1534
1506 1510 1513 1516 1519 1521 1523 1525 1526 1528 1529 1530 1531 1532 1533 1533 1534 1534 1534 1534 1534 1534 1533 1533 1533 1534 1534 1533 1533 1533 1533 1532 1533 1533 1532 1532 1532 1532 1532 1531 1532 1533 1532
1505 1508 1511 1514 1517 1519 1521 1523 1525 1526 1527 1529 1530 1531 1531 1532 1532 1532 1532 1532 1532 1532 1532 1532 1532 1532 1532 1532 1532 1531 1531 1531 1530 1530 1530 1529 1530 1529 1529 1529 1529 1529 1530
1503 1506 1509 1512 1515 1517 1520 1521 1523 1524 1526 1527 1528 1529 1530 1530 1530 1531 1531 1531 1530 1530 1530 1530 1530 1531 1530 1530 1530 1530 1529 1529 1529 1528 1528 1527 1527 1527 1527 1526 1526 1526 1526
1502 1505 1508 1511 1513 1516 1518 1520 1521 1523 1524 1525 1526 1527 1528 1528 1529 1529 1529 1529 1529 1529 1529 1529 1529 1529 1529 1529 1528 1528 1528 1528 1527 1527 1526 1526 1525 1525 1525 1524 1524 1524 1524
1502 1504 1507 1509 1511 1514 1516 1518 1520 1521 1523 1524 1524 1525 1525 1526 1526 1527 1527 1527 1527 1527 1527 1527 1528 1528 1527 1527 1527 1527 1526 1526 1526 1525 1525 1524 1524 1523 1523 1522 1522 1522 1522
1501 1503 1505 1508 1510 1512 1514 1516 1518 1519 1520 1521 1522 1523 1523 1524 1524 1525 1525 1525 1525 1525 1525 1526 1526 1526 1526 1526 1525 1525 1524 1524 1524 1523 1523 1522 1522 1522 1521 1521 1521 1521 1520
1500 1502 1504 1506 1508 1510 1511 1513 1515 1517 1518 1519 1520 1520 1521 1522 1522 1523 1523 1524 1524 1524 1524 1524 1524 1524 1524 1524 1524 1524 1523 1522 1522 1522 1521 1521 1521 1520 1520 1520 1520 1520 1519
1499 1501 1503 1505 1506 1508 1509 1511 1513 1514 1515 1516 1518 1518 1519 1520 1521 1521 1522 1522 1522 1522 1522 1522 1523 1523 1523 1522 1522 1522 1522 1521 1520 1520 1520 1520 1519 1519 1518 1518 1518 1518 1518
1498 1500 1501 1503 1504 1506 1507 1508 1510 1511 1512 1514 1515 1516 1517 1518 1519 1519 1520 1520 1520 1520 1520 1520 1520 1520 1520 1520 1520 1520 1520 1520 1519 1519 1519 1519 1518 1518 1517 1517 1516 1517 1517
1497 1498 1499 1501 1502 1504 1505 1506 1507 1508 1509 1511 1512 1514 1515 1516 1516 1517 1517 1518 1518 1518 1519 1518 1519 1518 1518 1518 1518 1518 1518 1518 1517 1517 1517 1517 1516 1516 1516 1516 1516 1515 1515
1495 1496 1498 1499 1500 1502 1502 1504 1505 1506 1507 1508 1510 1511 1512 1513 1513 1514 1515 1515 1516 1516 1517 1517 1516 1516 1515 1515 1516 1516 1517 1516 1516 1516 1515 1515 1515 1515 1514 1514 1514 1514 1514
1494 1495 1496 1497 1498 1499 1500 1501 1503 1504 1504 1505 1507 1508 1509 1509 1510 1511 1512 1513 1513 1514 1514 1514 1514 1514 1513 1513 1513 1514 1515 1515 1514 1514 1514 1513 1513 1513 1513 1513 1513 1513 1513
1492 1493 1494 1495 1496 1496 1498 1499 1500 1501 1502 1503 1504 1505 1505 1506 1507 1508 1509 1510 1510 1511 1511 1511 1511 1511 1510 1510 1511 1511 1512 1513 1513 1513 1513 1512 1511 1511 1511 1511 1511 1511 1511
1491 1492 1492 1493 1494 1494 1495 1496 1497 1498 1499 1499 1500 1501 1502 1503 1504 1505 1506 1506 1507 1507 1508 1508 1508 1508 1508 1508 1507 1508 1509 1509 1510 1510 1511 1510 1509 1509 1509 1508 1508 1508 1509
1489 1490 1491 1491 1492 1492 1493 1493 1494 1495 1495 1496 1497 1498 1498 1499 1500 1501 1501 1502 1503 1504 1505 1505 1505 1505 1505 1504 1504 1505 1505 1506 1506 1507 1507 1507 1506 1506 1506 1506 1506 1506 1507
1488 1488 1489 1489 1489 1489 1490 1491 1491 1491 1492 1494 1495 1495 1496 1496 1497 1498 1499 1499 1499 1500 1501 1502 1502 1501 1501 1501 1501 1501 1502 1502 1503 1503 1503 1503 1503 1503 1503 1503 1503 1504 1504
1486 1486 1486 1486 1486 1486 1487 1486 1488 1489 1489 1491 1491 1492 1493 1493 1494 1494 1495 1496 1496 1497 1497 1497 1498 1498 1497 1497 1497 1498 1498 1499 1500 1500 1500 1500 1500 1500 1500 1500 1501 1501 1502
1483 1483 1484 1484 1484 1483 1483 1483 1484 1485 1485 1487 1488 1489 1490 1490 1490 1490 1491 1491 1492 1492 1492 1493 1493 1493 1493 1492 1493 1493 1494 1494 1495 1496 1496 1496 1496 1497 1497 1497 1497 1498 1498